FW5926 Weather Reports


time (UTC)temp
C
wind
direction
speed
KPH
gust
KPH
rain 1hr
cm
rain 24hr
cm
rain mn
cm
humidity
%
barometer
mb
20260504160105 19 194 3.2 12.9 0.00 0.00 0.00 58 1004.9
20260504151103 18 274 4.8 14.5 0.00 0.00 0.00 62 1005.1
20260504150104 17 171 4.8 11.3 0.00 0.00 0.00 63 1005.2
20260504141104 15 204 4.8 14.5 0.00 0.00 0.00 67 1005.0
20260504140604 15 271 4.8 16.1 0.00 0.00 0.00 68 1005.1
20260504140105 14 272 4.8 12.9 0.00 0.00 0.00 69 1005.2
20260504130604 12 260 8.0 14.5 0.00 0.00 0.00 74 1005.8
20260504130104 12 265 8.0 14.5 0.00 0.00 0.00 74 1005.8
20260504120104 10 181 4.8 14.5 0.00 0.00 0.00 79 1006.1
20260504110604 8 249 1.6 9.7 0.00 0.00 0.00 80 1005.9
20260504110105 8 185 1.6 4.8 0.00 0.00 0.00 80 1005.9
20260504100604 8 242 1.6 9.7 0.00 0.00 0.00 80 1005.8
20260504100104 8 237 3.2 9.7 0.00 0.00 0.00 80 1005.8
20260504090105 8 229 1.6 4.8 0.00 0.00 0.00 79 1005.8
20260504081603 8 175 3.2 8.0 0.00 0.00 0.00 78 1006.3
20260504081104 8 225 3.2 8.0 0.00 0.00 0.00 77 1006.4
20260504080105 8 207 4.8 9.7 0.00 0.00 0.00 77 1006.5
20260504070104 9 218 1.6 4.8 0.00 0.00 0.00 74 1007.3
20260504060105 9 179 3.2 8.0 0.00 0.00 0.00 74 1007.9
20260504050604 10 177 4.8 8.0 0.00 0.00 0.00 72 1008.6
20260504050104 10 175 3.2 9.7 0.00 0.00 0.00 72 1008.7
20260504045605 10 173 3.2 8.0 0.00 0.00 0.00 71 1008.7
20260504045105 10 329 3.2 8.0 0.00 0.00 0.00 71 1008.7
20260504044604 10 175 3.2 9.7 0.00 0.00 0.00 71 1008.8
20260504043605 10 263 3.2 9.7 0.00 0.00 0.00 70 1008.7
20260504043104 10 201 4.8 8.0 0.00 0.00 0.00 70 1008.8
20260504042604 10 175 3.2 8.0 0.00 0.00 0.00 70 1008.8
20260504042104 10 188 3.2 8.0 0.00 0.00 0.00 70 1008.9
20260504041604 10 185 3.2 4.8 0.00 0.00 0.00 70 1008.9
20260504041104 10 193 3.2 9.7 0.00 0.00 0.00 70 1008.9
20260504040604 10 185 3.2 11.3 0.00 0.00 0.00 70 1009.0
20260504040105 10 236 3.2 8.0 0.00 0.00 0.00 70 1009.0
20260504035604 10 172 3.2 8.0 0.00 0.00 0.00 70 1009.1
20260504034604 10 244 3.2 8.0 0.00 0.00 0.00 69 1009.3
20260504034106 10 315 3.2 14.5 0.00 0.00 0.00 69 1009.3
20260504033604 10 168 4.8 14.5 0.00 0.00 0.00 69 1009.4
20260504032604 10 234 3.2 9.7 0.00 0.00 0.00 69 1009.5
20260504032104 10 27 1.6 9.7 0.00 0.00 0.00 69 1009.5
20260504031604 10 167 3.2 11.3 0.00 0.00 0.00 69 1009.5
20260504031104 10 160 3.2 4.8 0.00 0.00 0.00 69 1009.6
20260504030604 10 210 3.2 8.0 0.00 0.00 0.00 70 1009.6
20260504030105 10 132 3.2 8.0 0.00 0.00 0.00 70 1009.6
20260504025604 10 181 3.2 9.7 0.00 0.00 0.00 70 1009.6
20260504025104 10 183 4.8 11.3 0.00 0.00 0.00 70 1009.7
20260504024603 10 156 4.8 19.3 0.00 0.00 0.00 70 1009.8
20260504024104 10 287 4.8 12.9 0.00 0.00 0.00 70 1009.8
20260504023604 10 215 3.2 8.0 0.00 0.00 0.00 70 1009.8
20260504023104 10 176 4.8 11.3 0.00 0.00 0.00 70 1009.8
20260504022604 10 186 4.8 11.3 0.00 0.00 0.00 70 1009.8
20260504022104 10 175 3.2 8.0 0.00 0.00 0.00 71 1009.8
20260504021604 10 188 4.8 14.5 0.00 0.00 0.00 71 1009.9
20260504021104 10 242 1.6 8.0 0.00 0.00 0.00 71 1009.9
20260504020604 10 223 3.2 4.8 0.00 0.00 0.00 71 1009.8
20260504020105 10 168 3.2 12.9 0.00 0.00 0.00 71 1010.0
20260504015604 10 183 4.8 9.7 0.00 0.00 0.00 71 1009.9
20260504015104 10 174 3.2 4.8 0.00 0.00 0.00 71 1010.0
20260504014604 10 191 3.2 8.0 0.00 0.00 0.00 71 1009.9
20260504014104 10 193 1.6 4.8 0.00 0.00 0.00 71 1009.9
20260504013104 10 167 3.2 11.3 0.00 0.00 0.00 71 1009.9
20260504012604 10 252 3.2 8.0 0.00 0.00 0.00 71 1009.9
20260504012104 10 210 3.2 4.8 0.00 0.00 0.00 70 1010.0
20260504011604 11 198 3.2 8.0 0.00 0.00 0.00 70 1010.0
20260504011104 11 260 3.2 4.8 0.00 0.00 0.00 70 1010.0
20260504010604 11 189 3.2 8.0 0.00 0.00 0.00 69 1010.0
20260504010105 11 141 3.2 11.3 0.00 0.00 0.00 69 1010.0
20260504005604 11 203 1.6 4.8 0.00 0.00 0.00 69 1010.0
20260504005104 11 169 3.2 9.7 0.00 0.00 0.00 69 1010.1
20260504004604 11 195 3.2 9.7 0.00 0.00 0.00 68 1010.2
20260504004104 11 212 3.2 8.0 0.00 0.00 0.00 68 1010.1
20260504003604 11 182 1.6 9.7 0.00 0.00 0.00 67 1010.3
20260504003104 11 168 3.2 8.0 0.00 0.00 0.00 67 1010.2
20260504002604 11 170 1.6 4.8 0.00 0.00 0.00 67 1010.3
20260504002104 11 159 3.2 9.7 0.00 0.00 0.00 66 1010.3
20260504001105 12 236 1.6 8.0 0.00 0.00 0.00 66 1010.4
20260504000604 12 171 1.6 8.0 0.00 0.00 0.00 66 1010.4
20260504000105 12 181 3.2 11.3 0.00 0.00 0.00 66 1010.4
20260503235604 12 217 3.2 9.7 0.00 0.00 0.00 65 1010.3
20260503234605 12 196 3.2 9.7 0.00 0.00 0.00 65 1010.5
20260503234104 12 168 3.2 12.9 0.00 0.00 0.00 65 1010.6
20260503233604 12 296 3.2 4.8 0.00 0.00 0.00 65 1010.7
20260503233104 12 341 8.0 19.3 0.00 0.00 0.00 64 1010.7
20260503232604 12 255 9.7 19.3 0.00 0.00 0.00 64 1010.8
20260503231604 12 231 8.0 19.3 0.00 0.00 0.00 62 1010.9
20260503231103 12 277 14.5 24.1 0.00 0.00 0.00 62 1010.9
20260503230604 12 267 9.7 22.5 0.00 0.00 0.00 61 1011.0
20260503230105 12 270 14.5 32.2 0.00 0.00 0.00 60 1011.0
20260503225604 12 266 11.3 25.7 0.00 0.00 0.00 60 1011.0
20260503225104 12 271 14.5 24.1 0.00 0.00 0.00 61 1011.0
20260503224603 13 266 16.1 25.7 0.00 0.00 0.00 60 1011.0
20260503224104 13 266 11.3 27.4 0.00 0.00 0.00 59 1010.9
20260503223104 13 263 20.9 37.0 0.00 0.00 0.00 57 1010.9
20260503222604 14 267 14.5 25.7 0.00 0.00 0.00 56 1010.9
20260503222104 15 272 14.5 33.8 0.00 0.00 0.00 54 1010.9
20260503221604 15 280 19.3 33.8 0.00 0.00 0.00 54 1010.7
20260503220604 15 257 11.3 25.7 0.00 0.00 0.00 48 1010.4
20260503220105 16 265 19.3 33.8 0.00 0.00 0.00 46 1010.4
20260503215604 16 250 12.9 22.5 0.00 0.00 0.00 46 1010.4
20260503215104 16 250 11.3 24.1 0.00 0.00 0.00 45 1010.5
20260503214604 16 184 17.7 33.8 0.00 0.00 0.00 45 1010.6
20260503213604 16 264 9.7 19.3 0.00 0.00 0.00 46 1010.5
20260503213103 16 266 12.9 25.7 0.00 0.00 0.00 46 1010.5
20260503212604 16 248 14.5 22.5 0.00 0.00 0.00 46 1010.5
20260503212104 16 212 9.7 27.4 0.00 0.00 0.00 46 1010.5
20260503211104 16 275 11.3 25.7 0.00 0.00 0.00 45 1010.5
20260503210604 16 254 9.7 19.3 0.00 0.00 0.00 45 1010.6
20260503205604 16 247 14.5 25.7 0.00 0.00 0.00 44 1010.5
20260503205104 16 263 11.3 29.0 0.00 0.00 0.00 45 1010.6
20260503204603 16 257 19.3 38.6 0.00 0.00 0.00 44 1010.6
20260503204104 16 236 16.1 32.2 0.00 0.00 0.00 44 1010.6
20260503202104 16 244 6.4 16.1 0.00 0.00 0.00 45 1010.6
20260503201604 16 266 17.7 35.4 0.00 0.00 0.00 43 1010.8
20260503201104 16 276 12.9 32.2 0.00 0.00 0.00 44 1010.9
20260503200605 16 231 8.0 19.3 0.00 0.00 0.00 44 1010.9
20260503200105 16 261 14.5 32.2 0.00 0.00 0.00 43 1010.9
20260503195604 16 270 11.3 25.7 0.00 0.00 0.00 43 1011.0
20260503195104 16 285 8.0 25.7 0.00 0.00 0.00 44 1011.0
20260503194603 16 264 9.7 22.5 0.00 0.00 0.00 43 1011.2
20260503194104 16 217 9.7 19.3 0.00 0.00 0.00 43 1011.1
20260503193104 16 238 19.3 35.4 0.00 0.00 0.00 42 1011.3
20260503192604 16 263 14.5 27.4 0.00 0.00 0.00 42 1011.4
20260503191604 16 194 8.0 20.9 0.00 0.00 0.00 44 1011.5
20260503191103 16 170 8.0 22.5 0.00 0.00 0.00 45 1011.5
20260503190604 16 281 14.5 29.0 0.00 0.00 0.00 44 1011.6
20260503185604 16 255 16.1 32.2 0.00 0.00 0.00 44 1011.8
20260503184604 16 274 14.5 29.0 0.00 0.00 0.00 44 1011.8
20260503184104 16 200 16.1 29.0 0.00 0.00 0.00 42 1011.9
20260503183604 16 163 11.3 27.4 0.00 0.00 0.00 44 1011.9
20260503183103 16 272 11.3 32.2 0.00 0.00 0.00 44 1012.1
20260503182605 16 267 16.1 32.2 0.00 0.00 0.00 43 1012.2
20260503182103 15 277 19.3 29.0 0.00 0.00 0.00 44 1012.2
20260503181604 15 264 12.9 25.7 0.00 0.00 0.00 46 1012.2
20260503181104 15 276 14.5 32.2 0.00 0.00 0.00 44 1012.4
20260503180604 15 248 11.3 20.9 0.00 0.00 0.00 44 1012.5
20260503180106 15 269 19.3 27.4 0.00 0.00 0.00 43 1012.5
20260503175604 15 279 17.7 27.4 0.00 0.00 0.00 44 1012.6
20260503175103 15 278 16.1 32.2 0.00 0.00 0.00 44 1012.7
20260503174104 15 257 12.9 33.8 0.00 0.00 0.00 44 1012.8
20260503173604 15 224 11.3 32.2 0.00 0.00 0.00 44 1012.9
20260503172604 15 258 11.3 33.8 0.00 0.00 0.00 43 1013.0
20260503171604 15 269 16.1 32.2 0.00 0.00 0.00 46 1013.2
20260503171103 14 263 8.0 20.9 0.00 0.00 0.00 46 1013.3
20260503170603 15 257 11.3 25.7 0.00 0.00 0.00 45 1013.4
20260503170106 15 239 9.7 24.1 0.00 0.00 0.00 46 1013.4